This is the latest recevied weather packets stored in our database for station/object ON7XX-13. If no packets are shown the sender has not sent any weather packets the latest 10 day(s).
| Time | Temp. | Humidity | Pressure | Rain* | Wind** | Luminosity | Snow |
|---|---|---|---|---|---|---|---|
| 1777871226 | 12.78° C | 99% | 1013.5 hPa | - | - | - | - |
| 1777870612 | 12.78° C | 97% | 1013.5 hPa | - | - | - | - |
| 1777869998 | 12.78° C | 96% | 1013.5 hPa | - | - | - | - |
| 1777869384 | 12.78° C | 96% | 1013.5 hPa | - | - | - | - |
| 1777868770 | 12.78° C | 96% | 1013.6 hPa | - | - | - | - |
| 1777868155 | 13.33° C | 93% | 1013.4 hPa | - | - | - | - |
| 1777867541 | 13.33° C | 96% | 1013.3 hPa | - | - | - | - |
| 1777866926 | 13.33° C | 97% | 1013.3 hPa | - | - | - | - |
| 1777866312 | 13.33° C | 96% | 1013.3 hPa | - | - | - | - |
| 1777865698 | 13.33° C | 98% | 1013.3 hPa | - | - | - | - |
| 1777865084 | 13.33° C | 100% | 1013.5 hPa | - | - | - | - |
| 1777864470 | 13.33° C | 100% | 1013.4 hPa | - | - | - | - |
| 1777863855 | 13.89° C | 100% | 1013.4 hPa | - | - | - | - |
| 1777863241 | 13.89° C | 98% | 1013.3 hPa | - | - | - | - |
| 1777862627 | 13.89° C | 98% | 1013.2 hPa | - | - | - | - |
| 1777862013 | 14.44° C | 97% | 1013.3 hPa | - | - | - | - |
| 1777861399 | 14.44° C | 97% | 1013.1 hPa | - | - | - | - |
| 1777860785 | 14.44° C | 98% | 1013.1 hPa | - | - | - | - |
| 1777860170 | 14.44° C | 99% | 1013.1 hPa | - | - | - | - |
| 1777859556 | 14.44° C | 98% | 1013.1 hPa | - | - | - | - |
| 1777858942 | 14.44° C | 96% | 1013.1 hPa | - | - | - | - |
| 1777858328 | 14.44° C | 98% | 1013.2 hPa | - | - | - | - |
| 1777857714 | 14.44° C | 99% | 1013.2 hPa | - | - | - | - |
| 1777857099 | 14.44° C | 100% | 1013.1 hPa | - | - | - | - |
| 1777856485 | 14.44° C | 100% | 1013 hPa | - | - | - | - |
* Rain since midnight (hover to see other rain measurements)
** Current wind speed in m/s (hover to see current wind gust speed)